Dutch Harbor, AK

3:58 PM AKDT on June 28, 2017 (GMT -0800)
Unalaska

Weather History for PADU - January, 2013

Change the Weather History Date:

Wednesday, January 9, 2013

  Actual Average Record
Temperature  
Mean Temperature 39 °F -  
Max Temperature 41 °F 36 °F 43 °F (1952)
Min Temperature 37 °F 28 °F 15 °F (2004)
Degree Days  
Heating Degree Days 26    
Moisture  
Dew Point 31 °F    
Average Humidity 71    
Maximum Humidity 86    
Minimum Humidity 55    
Precipitation  
Precipitation 0.14 in - - ()
Sea Level Pressure  
Sea Level Pressure 29.61 in    
Wind  
Wind Speed 14 mph (South)    
Max Wind Speed 21 mph    
Max Gust Speed 28 mph    
Visibility 10 miles    
Events Rain    
Averages and records for this station are not official NWS values.
T = Trace of Precipitation, MM = Missing Value Source: NWS Daily Summary

Daily Weather History Graph

Daily Weather History Graph

Search for Another Location

Airport or City:

Trip Planner

Search our weather history database for the weather conditions in past years. The results will help you decide how hot, cold, wet, or windy it might be!

Date:

Astronomy

Jan. 09, 2013 Rise Set
Actual Time 10:20 AM AKST 6:06 PM AKST
Civil Twilight 9:38 AM AKST 6:48 PM AKST
Nautical Twilight 8:53 AM AKST 7:34 PM AKST
Astronomical Twilight 8:10 AM AKST 8:16 PM AKST
Moon 8:14 AM AKST (1/9) 4:21 PM AKST (1/9)
Length of Visible Light 9h 10m
Length of Day
7h 45m
Waning Crescent, 5% of the Moon is Illuminated
Jan 9
Waning Crescent
Jan 11
New
Jan 18
First Quarter
Jan 26
Full
Feb 3
Last Quarter

Hourly Weather History & Observations

Time (AKST) Temp. Windchill Dew Point Humidity Pressure Visibility Wind Dir Wind Speed Gust Speed Precip Events Conditions
12:49 AM 39.2 °F 30.8 °F 33.8 °F 81% 29.62 in 10.0 mi SSE 15.0 mph 24.2 mph 0.02 in Rain Light Rain
12:56 AM 39.9 °F 31.4 °F 34.0 °F 79% 29.63 in 10.0 mi SSE 16.1 mph 23.0 mph 0.02 in Rain Light Rain
1:56 AM 39.9 °F 31.1 °F 35.1 °F 83% 29.58 in 10.0 mi SSE 17.3 mph 27.6 mph 0.05 in Rain Light Rain
2:56 AM 39.9 °F 30.2 °F 34.0 °F 79% 29.55 in 10.0 mi SSE 20.7 mph 27.6 mph 0.03 in Rain Light Rain
3:11 AM 39.2 °F 30.2 °F 33.8 °F 81% 29.52 in 10.0 mi SSE 17.3 mph 25.3 mph 0.00 in Rain Light Rain
3:56 AM 39.9 °F 32.1 °F 34.0 °F 79% 29.52 in 10.0 mi SSE 13.8 mph 21.9 mph 0.02 in Rain Light Rain
4:56 AM 39.9 °F 32.9 °F 35.1 °F 83% 29.49 in 10.0 mi South 11.5 mph - 0.01 in Rain Light Rain
5:56 AM 39.9 °F 34.5 °F 36.0 °F 86% 29.48 in 10.0 mi SSW 8.1 mph - 0.00 in   Mostly Cloudy
6:56 AM 41.0 °F 34.7 °F 33.1 °F 73% 29.50 in 10.0 mi SW 10.4 mph 25.3 mph N/A   Mostly Cloudy
7:56 AM 39.9 °F 31.1 °F 30.0 °F 68% 29.55 in 10.0 mi WSW 17.3 mph 26.5 mph N/A   Clear
8:56 AM 41.0 °F 33.9 °F 28.9 °F 62% 29.58 in 10.0 mi SW 12.7 mph 20.7 mph N/A   Partly Cloudy
9:56 AM 39.9 °F 32.9 °F 30.0 °F 68% 29.62 in 10.0 mi SW 11.5 mph 21.9 mph 0.00 in Rain Light Rain
10:56 AM 39.9 °F 31.4 °F 28.0 °F 63% 29.64 in 10.0 mi SSW 16.1 mph 24.2 mph 0.00 in   Partly Cloudy
11:56 AM 39.0 °F 31.8 °F 28.9 °F 67% 29.66 in 10.0 mi SSW 11.5 mph - N/A   Clear
12:56 PM 39.0 °F 32.3 °F 27.0 °F 62% 29.67 in 10.0 mi South 10.4 mph - N/A   Clear
1:56 PM 39.0 °F 34.0 °F 26.1 °F 60% 29.66 in 10.0 mi South 6.9 mph - N/A   Clear
2:56 PM 39.0 °F 33.4 °F 28.0 °F 65% 29.66 in 10.0 mi South 8.1 mph - N/A   Clear
3:56 PM 39.0 °F 34.0 °F 27.0 °F 62% 29.66 in 10.0 mi South 6.9 mph - N/A   Scattered Clouds
5:56 PM 37.9 °F 29.6 °F 30.9 °F 76% 29.64 in 10.0 mi SSE 13.8 mph 19.6 mph 0.00 in Rain Light Rain
6:29 PM 37.4 °F 29.3 °F 32.0 °F 81% 29.61 in 10.0 mi SSE 12.7 mph 19.6 mph 0.00 in Rain Light Rain
6:56 PM 39.0 °F 31.4 °F 33.1 °F 79% 29.61 in 10.0 mi SSE 12.7 mph 23.0 mph 0.01 in Rain Light Rain
7:08 PM 39.2 °F 30.8 °F 33.8 °F 81% 29.60 in 10.0 mi SSE 15.0 mph 23.0 mph 0.00 in Rain Light Rain
8:56 PM 41.0 °F 33.1 °F 27.0 °F 57% 29.67 in 10.0 mi SSW 15.0 mph 23.0 mph N/A   Clear
9:56 PM 39.9 °F 32.9 °F 25.0 °F 55% 29.69 in 10.0 mi SSW 11.5 mph 18.4 mph N/A   Clear
10:56 PM 39.9 °F 33.9 °F 25.0 °F 55% 29.71 in 10.0 mi SW 9.2 mph - N/A   Clear
11:56 PM 37.9 °F 32.7 °F 24.1 °F 57% 29.72 in 10.0 mi South 6.9 mph - N/A   Clear